Location: Roland
(31.1349°N, 85.4372°W)
Time: 03:44:02
(UTC+00:00)

Vanguard 2 Rocket - Pass Details

Date: 02 December 2021
Orbit: 554 x 3324 km, 32.9° (Epoch: 16 January)

Event Time Altitude Azimuth Distance (km) Brightness Sun altitude
Exits shadow 07:50:19 22° 177° (S) 5,269 10.6 -57.7°
Drops below altitude 10° 07:57:01 10° 162° (SSE) 6,195 11.1 -56.3°
Sets 08:02:27 0° 153° (SSE) 7,045 11.6 -55.2°
